| time (UTC) | temp F | wind direction | speed MPH | gust MPH | rain 1hr in | rain 24hr in | rain mn in | humidity % | barometer mb |
| 20260510214532 | 72 | 237 | 2.0 | 5.0 | 0.00 | 0.00 | 0.00 | 29 | 1020.1 |
| 20260510214050 | 72 | 261 | 2.0 | 5.0 | 0.00 | 0.00 | 0.00 | 31 | 1020.1 |
| 20260510213544 | 73 | 290 | 2.0 | 9.0 | 0.00 | 0.00 | 0.00 | 29 | 1020.1 |
| 20260510213040 | 73 | 346 | 5.0 | 9.0 | 0.00 | 0.00 | 0.00 | 30 | 1020.1 |
| 20260510212535 | 73 | 295 | 3.0 | 9.0 | 0.00 | 0.00 | 0.00 | 29 | 1020.3 |
| 20260510212032 | 73 | 255 | 3.0 | 11.0 | 0.00 | 0.00 | 0.00 | 30 | 1020.3 |
| 20260510211609 | 73 | 328 | 4.0 | 10.0 | 0.00 | 0.00 | 0.00 | 29 | 1020.3 |
| 20260510211045 | 73 | 339 | 3.0 | 10.0 | 0.00 | 0.00 | 0.00 | 29 | 1020.3 |
| 20260510210553 | 74 | 322 | 6.0 | 10.0 | 0.00 | 0.00 | 0.00 | 28 | 1020.4 |
| 20260510210030 | 74 | 266 | 4.0 | 12.0 | 0.00 | 0.00 | 0.00 | 27 | 1020.4 |
| 20260510205609 | 74 | 286 | 4.0 | 9.0 | 0.00 | 0.00 | 0.00 | 30 | 1020.6 |
| 20260510205043 | 74 | 299 | 2.0 | 9.0 | 0.00 | 0.00 | 0.00 | 29 | 1020.5 |
| 20260510204600 | 73 | 319 | 2.0 | 9.0 | 0.00 | 0.00 | 0.00 | 27 | 1020.6 |
| 20260510204040 | 73 | 356 | 3.0 | 7.0 | 0.00 | 0.00 | 0.00 | 27 | 1020.6 |
| 20260510203535 | 74 | 344 | 3.0 | 5.0 | 0.00 | 0.00 | 0.00 | 30 | 1020.8 |
| 20260510203031 | 74 | 230 | 2.0 | 7.0 | 0.00 | 0.00 | 0.00 | 30 | 1020.8 |
| 20260510202547 | 73 | 281 | 3.0 | 10.0 | 0.00 | 0.00 | 0.00 | 29 | 1020.9 |
| 20260510202043 | 73 | 1 | 4.0 | 10.0 | 0.00 | 0.00 | 0.00 | 29 | 1021.0 |
| 20260510201108 | 73 | 351 | 4.0 | 7.0 | 0.00 | 0.00 | 0.00 | 29 | 1021.1 |
| 20260510200615 | 73 | 227 | 2.0 | 7.0 | 0.00 | 0.00 | 0.00 | 29 | 1021.1 |
| 20260510195540 | 73 | 3 | 4.0 | 8.0 | 0.00 | 0.00 | 0.00 | 29 | 1021.2 |
| 20260510195053 | 73 | 262 | 4.0 | 8.0 | 0.00 | 0.00 | 0.00 | 30 | 1021.2 |
| 20260510194549 | 73 | 226 | 4.0 | 7.0 | 0.00 | 0.00 | 0.00 | 28 | 1021.4 |
| 20260510194045 | 72 | 289 | 4.0 | 9.0 | 0.00 | 0.00 | 0.00 | 30 | 1021.3 |
| 20260510193559 | 72 | 229 | 5.0 | 9.0 | 0.00 | 0.00 | 0.00 | 29 | 1021.5 |
| 20260510193033 | 72 | 204 | 3.0 | 7.0 | 0.00 | 0.00 | 0.00 | 28 | 1021.5 |
| 20260510192548 | 71 | 226 | 3.0 | 10.0 | 0.00 | 0.00 | 0.00 | 29 | 1021.6 |
| 20260510191549 | 71 | 266 | 4.0 | 6.0 | 0.00 | 0.00 | 0.00 | 30 | 1021.7 |
| 20260510191045 | 71 | 342 | 1.0 | 8.0 | 0.00 | 0.00 | 0.00 | 32 | 1021.7 |
| 20260510190552 | 71 | 215 | 2.0 | 8.0 | 0.00 | 0.00 | 0.00 | 30 | 1021.9 |
| 20260510190111 | 70 | 232 | 2.0 | 9.0 | 0.00 | 0.00 | 0.00 | 30 | 1021.9 |
| 20260510185545 | 70 | 353 | 6.0 | 9.0 | 0.00 | 0.00 | 0.00 | 30 | 1021.9 |
| 20260510185100 | 71 | 331 | 4.0 | 9.0 | 0.00 | 0.00 | 0.00 | 30 | 1022.0 |
| 20260510184539 | 70 | 240 | 5.0 | 9.0 | 0.00 | 0.00 | 0.00 | 30 | 1022.1 |
| 20260510184034 | 70 | 193 | 2.0 | 8.0 | 0.00 | 0.00 | 0.00 | 32 | 1022.1 |
| 20260510183530 | 69 | 250 | 1.0 | 8.0 | 0.00 | 0.00 | 0.00 | 31 | 1022.2 |
| 20260510183046 | 69 | 347 | 3.0 | 10.0 | 0.00 | 0.00 | 0.00 | 31 | 1022.2 |
| 20260510182540 | 70 | 312 | 4.0 | 12.0 | 0.00 | 0.00 | 0.00 | 30 | 1022.2 |
| 20260510182035 | 70 | 265 | 5.0 | 12.0 | 0.00 | 0.00 | 0.00 | 30 | 1022.3 |
| 20260510181532 | 70 | 262 | 2.0 | 6.0 | 0.00 | 0.00 | 0.00 | 33 | 1022.3 |
| 20260510181047 | 70 | 240 | 2.0 | 7.0 | 0.00 | 0.00 | 0.00 | 31 | 1022.3 |
| 20260510180555 | 69 | 257 | 3.0 | 8.0 | 0.00 | 0.00 | 0.00 | 31 | 1022.4 |
| 20260510180051 | 69 | 304 | 3.0 | 5.0 | 0.00 | 0.00 | 0.00 | 32 | 1022.4 |
| 20260510175544 | 68 | 254 | 2.0 | 8.0 | 0.00 | 0.00 | 0.00 | 32 | 1022.4 |
| 20260510175042 | 68 | 310 | 4.0 | 9.0 | 0.00 | 0.00 | 0.00 | 31 | 1022.5 |
| 20260510174536 | 68 | 344 | 4.0 | 9.0 | 0.00 | 0.00 | 0.00 | 31 | 1022.4 |
| 20260510174032 | 68 | 297 | 1.0 | 7.0 | 0.00 | 0.00 | 0.00 | 32 | 1022.5 |
| 20260510173548 | 67 | 271 | 2.0 | 7.0 | 0.00 | 0.00 | 0.00 | 33 | 1022.4 |
| 20260510173044 | 67 | 304 | 1.0 | 9.0 | 0.00 | 0.00 | 0.00 | 36 | 1022.4 |
| 20260510172558 | 66 | 335 | 3.0 | 9.0 | 0.00 | 0.00 | 0.00 | 32 | 1022.5 |
| 20260510172033 | 66 | 236 | 2.0 | 9.0 | 0.00 | 0.00 | 0.00 | 32 | 1022.5 |
| 20260510171533 | 66 | 340 | 4.0 | 9.0 | 0.00 | 0.00 | 0.00 | 33 | 1022.7 |
| 20260510171048 | 66 | 233 | 2.0 | 7.0 | 0.00 | 0.00 | 0.00 | 34 | 1022.7 |
| 20260510170616 | 66 | 258 | 5.0 | 7.0 | 0.00 | 0.00 | 0.00 | 33 | 1022.9 |
| 20260510170043 | 66 | 270 | 2.0 | 5.0 | 0.00 | 0.00 | 0.00 | 34 | 1022.8 |
| 20260510165600 | 65 | 346 | 3.0 | 7.0 | 0.00 | 0.00 | 0.00 | 35 | 1022.9 |
| 20260510165037 | 65 | 284 | 4.0 | 7.0 | 0.00 | 0.00 | 0.00 | 33 | 1023.0 |
| 20260510164535 | 65 | 272 | 3.0 | 6.0 | 0.00 | 0.00 | 0.00 | 33 | 1023.0 |
| 20260510164031 | 65 | 223 | 4.0 | 6.0 | 0.00 | 0.00 | 0.00 | 36 | 1023.0 |
| 20260510163550 | 65 | 173 | 1.0 | 5.0 | 0.00 | 0.00 | 0.00 | 36 | 1023.0 |
| 20260510163047 | 64 | 271 | 2.0 | 6.0 | 0.00 | 0.00 | 0.00 | 37 | 1023.0 |
| 20260510162545 | 63 | 185 | 1.0 | 6.0 | 0.00 | 0.00 | 0.00 | 35 | 1023.0 |
| 20260510162042 | 63 | 198 | 2.0 | 6.0 | 0.00 | 0.00 | 0.00 | 35 | 1023.0 |
| 20260510161541 | 63 | 288 | 2.0 | 6.0 | 0.00 | 0.00 | 0.00 | 37 | 1023.0 |
| 20260510161038 | 63 | 308 | 3.0 | 5.0 | 0.00 | 0.00 | 0.00 | 36 | 1022.9 |
| 20260510160626 | 63 | 219 | 1.0 | 6.0 | 0.00 | 0.00 | 0.00 | 37 | 1023.0 |
| 20260510160046 | 63 | 215 | 2.0 | 6.0 | 0.00 | 0.00 | 0.00 | 39 | 1022.9 |
| 20260510155544 | 62 | 155 | 1.0 | 4.0 | 0.00 | 0.00 | 0.00 | 39 | 1023.0 |
| 20260510155041 | 62 | 155 | 3.0 | 4.0 | 0.00 | 0.00 | 0.00 | 38 | 1023.0 |
| 20260510154600 | 61 | 236 | 3.0 | 6.0 | 0.00 | 0.00 | 0.00 | 39 | 1023.0 |
| 20260510154033 | 61 | 231 | 2.0 | 10.0 | 0.00 | 0.00 | 0.00 | 38 | 1023.0 |
| 20260510153535 | 61 | 219 | 5.0 | 10.0 | 0.00 | 0.00 | 0.00 | 38 | 1023.0 |
| 20260510153033 | 60 | 189 | 1.0 | 6.0 | 0.00 | 0.00 | 0.00 | 38 | 1023.0 |
| 20260510152551 | 60 | 186 | 3.0 | 6.0 | 0.00 | 0.00 | 0.00 | 41 | 1023.1 |
| 20260510152047 | 60 | 194 | 3.0 | 6.0 | 0.00 | 0.00 | 0.00 | 37 | 1023.1 |
| 20260510151546 | 60 | 198 | 1.0 | 6.0 | 0.00 | 0.00 | 0.00 | 41 | 1023.0 |
| 20260510151042 | 60 | 199 | 3.0 | 7.0 | 0.00 | 0.00 | 0.00 | 41 | 1023.0 |
| 20260510150551 | 59 | 192 | 4.0 | 7.0 | 0.00 | 0.00 | 0.00 | 41 | 1023.0 |
| 20260510150048 | 59 | 195 | 2.0 | 4.0 | 0.00 | 0.00 | 0.00 | 39 | 1023.0 |
| 20260510145606 | 58 | 195 | 1.0 | 5.0 | 0.00 | 0.00 | 0.00 | 40 | 1023.0 |
| 20260510145041 | 58 | 196 | 3.0 | 5.0 | 0.00 | 0.00 | 0.00 | 40 | 1022.9 |
| 20260510144536 | 58 | 199 | 1.0 | 4.0 | 0.00 | 0.00 | 0.00 | 42 | 1022.8 |
| 20260510144032 | 58 | 198 | 2.0 | 5.0 | 0.00 | 0.00 | 0.00 | 41 | 1022.8 |
| 20260510143548 | 57 | 195 | 3.0 | 6.0 | 0.00 | 0.00 | 0.00 | 42 | 1022.8 |
| 20260510143043 | 57 | 193 | 3.0 | 6.0 | 0.00 | 0.00 | 0.00 | 43 | 1022.6 |
| 20260510142538 | 57 | 198 | 4.0 | 6.0 | 0.00 | 0.00 | 0.00 | 44 | 1022.6 |
| 20260510142035 | 56 | 205 | 2.0 | 3.0 | 0.00 | 0.00 | 0.00 | 47 | 1022.5 |
| 20260510141532 | 56 | 205 | 1.0 | 5.0 | 0.00 | 0.00 | 0.00 | 47 | 1022.5 |
| 20260510141032 | 56 | 205 | 2.0 | 5.0 | 0.00 | 0.00 | 0.00 | 49 | 1022.4 |
| 20260510140603 | 56 | 207 | 2.0 | 5.0 | 0.00 | 0.00 | 0.00 | 48 | 1022.3 |
| 20260510140038 | 55 | 229 | 3.0 | 4.0 | 0.00 | 0.00 | 0.00 | 47 | 1022.2 |
| 20260510135555 | 55 | 274 | 2.0 | 3.0 | 0.00 | 0.00 | 0.00 | 46 | 1022.2 |
| 20260510135051 | 55 | 276 | 1.0 | 3.0 | 0.00 | 0.00 | 0.00 | 47 | 1022.3 |
| 20260510134545 | 54 | 276 | 1.0 | 3.0 | 0.00 | 0.00 | 0.00 | 48 | 1022.2 |
| 20260510134040 | 53 | 276 | 1.0 | 3.0 | 0.00 | 0.00 | 0.00 | 48 | 1022.2 |
| 20260510133557 | 53 | 276 | 1.0 | 3.0 | 0.00 | 0.00 | 0.00 | 51 | 1022.1 |
| 20260510133031 | 52 | 294 | 1.0 | 2.0 | 0.00 | 0.00 | 0.00 | 52 | 1022.0 |
| 20260510132608 | 52 | 319 | 0.0 | 1.0 | 0.00 | 0.00 | 0.00 | 56 | 1022.1 |
| 20260510132043 | 51 | 319 | 0.0 | 1.0 | 0.00 | 0.00 | 0.00 | 55 | 1022.2 |
| 20260510131538 | 51 | 319 | 0.0 | 2.0 | 0.00 | 0.00 | 0.00 | 56 | 1022.2 |
| 20260510131034 | 50 | 319 | 1.0 | 2.0 | 0.00 | 0.00 | 0.00 | 59 | 1022.0 |
| 20260510130602 | 50 | 319 | 0.0 | 1.0 | 0.00 | 0.00 | 0.00 | 61 | 1022.0 |
| 20260510130038 | 49 | 319 | 0.0 | 0.0 | 0.00 | 0.00 | 0.00 | 61 | 1021.9 |
| 20260510125535 | 49 | 319 | 0.0 | 0.0 | 0.00 | 0.00 | 0.00 | 63 | 1021.8 |
| 20260510125031 | 48 | 319 | 0.0 | 0.0 | 0.00 | 0.00 | 0.00 | 62 | 1021.8 |
| 20260510124547 | 48 | 319 | 0.0 | 0.0 | 0.00 | 0.00 | 0.00 | 62 | 1021.7 |
| 20260510124042 | 48 | 319 | 0.0 | 0.0 | 0.00 | 0.00 | 0.00 | 62 | 1021.6 |
| 20260510123539 | 48 | 319 | 0.0 | 0.0 | 0.00 | 0.00 | 0.00 | 62 | 1021.7 |
| 20260510123035 | 48 | 319 | 0.0 | 0.0 | 0.00 | 0.00 | 0.00 | 61 | 1021.7 |
| 20260510122551 | 48 | 319 | 0.0 | 0.0 | 0.00 | 0.00 | 0.00 | 60 | 1021.7 |
| 20260510122044 | 48 | 319 | 0.0 | 0.0 | 0.00 | 0.00 | 0.00 | 61 | 1021.6 |
| 20260510121539 | 48 | 319 | 0.0 | 0.0 | 0.00 | 0.00 | 0.00 | 62 | 1021.6 |
| 20260510121039 | 48 | 319 | 0.0 | 0.0 | 0.00 | 0.00 | 0.00 | 63 | 1021.5 |
| 20260510120607 | 48 | 319 | 0.0 | 0.0 | 0.00 | 0.00 | 0.00 | 63 | 1021.4 |
| 20260510120044 | 48 | 319 | 0.0 | 0.0 | 0.00 | 0.00 | 0.00 | 62 | 1021.3 |
| 20260510115539 | 47 | 319 | 0.0 | 0.0 | 0.00 | 0.00 | 0.00 | 62 | 1021.3 |
| 20260510115055 | 47 | 319 | 0.0 | 0.0 | 0.00 | 0.00 | 0.00 | 61 | 1021.2 |
| 20260510114548 | 47 | 319 | 0.0 | 0.0 | 0.00 | 0.00 | 0.00 | 61 | 1021.2 |
| 20260510114043 | 47 | 319 | 0.0 | 0.0 | 0.00 | 0.00 | 0.00 | 63 | 1021.1 |
| 20260510113600 | 47 | 319 | 0.0 | 0.0 | 0.00 | 0.00 | 0.00 | 62 | 1021.2 |
| 20260510113034 | 47 | 319 | 0.0 | 0.0 | 0.00 | 0.00 | 0.00 | 62 | 1021.2 |
| 20260510112550 | 47 | 319 | 0.0 | 0.0 | 0.00 | 0.00 | 0.00 | 63 | 1021.2 |
| 20260510112045 | 47 | 319 | 0.0 | 0.0 | 0.00 | 0.00 | 0.00 | 63 | 1021.3 |
| 20260510111541 | 47 | 319 | 0.0 | 0.0 | 0.00 | 0.00 | 0.00 | 62 | 1021.2 |
| 20260510111036 | 46 | 319 | 0.0 | 0.0 | 0.00 | 0.00 | 0.00 | 63 | 1021.2 |
| 20260510110605 | 46 | 319 | 0.0 | 1.0 | 0.00 | 0.00 | 0.00 | 62 | 1021.2 |
| 20260510110041 | 46 | 319 | 0.0 | 2.0 | 0.00 | 0.00 | 0.00 | 62 | 1021.1 |
| 20260510105537 | 46 | 319 | 1.0 | 2.0 | 0.00 | 0.00 | 0.00 | 62 | 1021.0 |
| 20260510105052 | 46 | 319 | 0.0 | 1.0 | 0.00 | 0.00 | 0.00 | 62 | 1021.0 |
| 20260510104547 | 46 | 319 | 0.0 | 0.0 | 0.00 | 0.00 | 0.00 | 61 | 1021.1 |
| 20260510104043 | 46 | 319 | 0.0 | 0.0 | 0.00 | 0.00 | 0.00 | 60 | 1021.0 |
| 20260510103559 | 46 | 319 | 0.0 | 0.0 | 0.00 | 0.00 | 0.00 | 60 | 1021.0 |
| 20260510103033 | 46 | 319 | 0.0 | 0.0 | 0.00 | 0.00 | 0.00 | 60 | 1021.0 |
| 20260510102549 | 47 | 319 | 0.0 | 0.0 | 0.00 | 0.00 | 0.00 | 59 | 1020.8 |
| 20260510102044 | 47 | 319 | 0.0 | 0.0 | 0.00 | 0.00 | 0.00 | 58 | 1020.8 |
| 20260510101542 | 47 | 319 | 0.0 | 0.0 | 0.00 | 0.00 | 0.00 | 57 | 1020.7 |
| 20260510101039 | 47 | 319 | 0.0 | 1.0 | 0.00 | 0.00 | 0.00 | 57 | 1020.6 |
| 20260510100630 | 47 | 319 | 0.0 | 2.0 | 0.00 | 0.00 | 0.00 | 56 | 1020.6 |
| 20260510100045 | 47 | 319 | 0.0 | 3.0 | 0.00 | 0.00 | 0.00 | 57 | 1020.3 |
| 20260510095540 | 47 | 319 | 1.0 | 3.0 | 0.00 | 0.00 | 0.00 | 57 | 1020.2 |
| 20260510095035 | 47 | 319 | 0.0 | 0.0 | 0.00 | 0.00 | 0.00 | 58 | 1020.1 |
| 20260510094532 | 47 | 319 | 0.0 | 0.0 | 0.00 | 0.00 | 0.00 | 58 | 1020.0 |
| 20260510094048 | 47 | 319 | 0.0 | 0.0 | 0.00 | 0.00 | 0.00 | 57 | 1019.9 |
| 20260510093607 | 47 | 319 | 0.0 | 2.0 | 0.00 | 0.00 | 0.00 | 56 | 1020.0 |
| 20260510093041 | 48 | 319 | 0.0 | 2.0 | 0.00 | 0.00 | 0.00 | 55 | 1019.9 |
| 20260510092537 | 48 | 319 | 0.0 | 1.0 | 0.00 | 0.00 | 0.00 | 55 | 1019.9 |
| 20260510092033 | 48 | 319 | 0.0 | 1.0 | 0.00 | 0.00 | 0.00 | 54 | 1019.9 |
| 20260510091549 | 48 | 319 | 0.0 | 3.0 | 0.00 | 0.00 | 0.00 | 54 | 1019.7 |
| 20260510091045 | 48 | 319 | 1.0 | 3.0 | 0.00 | 0.00 | 0.00 | 54 | 1019.7 |
| 20260510090615 | 48 | 319 | 1.0 | 3.0 | 0.00 | 0.00 | 0.00 | 54 | 1019.6 |
| 20260510090032 | 48 | 319 | 1.0 | 2.0 | 0.00 | 0.00 | 0.00 | 53 | 1019.5 |
| 20260510085610 | 48 | 319 | 1.0 | 2.0 | 0.00 | 0.00 | 0.00 | 53 | 1019.5 |
| 20260510085045 | 48 | 319 | 1.0 | 2.0 | 0.00 | 0.00 | 0.00 | 53 | 1019.6 |
| 20260510084602 | 48 | 319 | 0.0 | 0.0 | 0.00 | 0.00 | 0.00 | 53 | 1019.6 |
| 20260510084037 | 48 | 319 | 0.0 | 1.0 | 0.00 | 0.00 | 0.00 | 53 | 1019.6 |
| 20260510083553 | 48 | 319 | 0.0 | 1.0 | 0.00 | 0.00 | 0.00 | 54 | 1019.7 |
| 20260510083047 | 49 | 319 | 0.0 | 1.0 | 0.00 | 0.00 | 0.00 | 53 | 1019.6 |
| 20260510082034 | 49 | 319 | 0.0 | 0.0 | 0.00 | 0.00 | 0.00 | 53 | 1019.5 |
| 20260510081550 | 49 | 319 | 0.0 | 1.0 | 0.00 | 0.00 | 0.00 | 52 | 1019.5 |
| 20260510081046 | 49 | 319 | 0.0 | 2.0 | 0.00 | 0.00 | 0.00 | 52 | 1019.5 |
| 20260510080617 | 49 | 319 | 1.0 | 2.0 | 0.00 | 0.00 | 0.00 | 52 | 1019.5 |
| 20260510080053 | 49 | 319 | 1.0 | 2.0 | 0.00 | 0.00 | 0.00 | 53 | 1019.5 |
| 20260510075549 | 49 | 319 | 0.0 | 3.0 | 0.00 | 0.00 | 0.00 | 51 | 1019.5 |
| 20260510075044 | 50 | 319 | 0.0 | 3.0 | 0.00 | 0.00 | 0.00 | 51 | 1019.4 |
| 20260510074540 | 50 | 319 | 0.0 | 0.0 | 0.00 | 0.00 | 0.00 | 50 | 1019.2 |
| 20260510074036 | 50 | 319 | 0.0 | 2.0 | 0.00 | 0.00 | 0.00 | 50 | 1019.0 |
| 20260510073531 | 51 | 319 | 0.0 | 3.0 | 0.00 | 0.00 | 0.00 | 49 | 1019.1 |
| 20260510073047 | 51 | 319 | 1.0 | 4.0 | 0.00 | 0.00 | 0.00 | 49 | 1019.0 |
| 20260510072545 | 51 | 319 | 1.0 | 4.0 | 0.00 | 0.00 | 0.00 | 48 | 1018.9 |
| 20260510072042 | 51 | 319 | 2.0 | 4.0 | 0.00 | 0.00 | 0.00 | 48 | 1018.9 |
| 20260510071540 | 51 | 319 | 1.0 | 2.0 | 0.00 | 0.00 | 0.00 | 47 | 1018.8 |
| 20260510071054 | 51 | 319 | 1.0 | 4.0 | 0.00 | 0.00 | 0.00 | 47 | 1018.9 |
| 20260510070600 | 52 | 319 | 2.0 | 4.0 | 0.00 | 0.00 | 0.00 | 46 | 1018.8 |
| 20260510070037 | 52 | 319 | 1.0 | 4.0 | 0.00 | 0.00 | 0.00 | 46 | 1018.8 |
| 20260510065533 | 52 | 319 | 2.0 | 4.0 | 0.00 | 0.00 | 0.00 | 47 | 1018.8 |
| 20260510065049 | 52 | 318 | 2.0 | 4.0 | 0.00 | 0.00 | 0.00 | 47 | 1018.7 |
| 20260510064544 | 52 | 323 | 2.0 | 3.0 | 0.00 | 0.00 | 0.00 | 46 | 1018.7 |
| 20260510064042 | 52 | 323 | 1.0 | 5.0 | 0.00 | 0.00 | 0.00 | 47 | 1018.6 |
| 20260510063559 | 52 | 323 | 2.0 | 5.0 | 0.00 | 0.00 | 0.00 | 47 | 1018.6 |
| 20260510063033 | 53 | 322 | 2.0 | 4.0 | 0.00 | 0.00 | 0.00 | 47 | 1018.6 |
| 20260510062533 | 53 | 322 | 2.0 | 5.0 | 0.00 | 0.00 | 0.00 | 48 | 1018.7 |
| 20260510062050 | 53 | 321 | 3.0 | 5.0 | 0.00 | 0.00 | 0.00 | 47 | 1018.7 |
| 20260510061547 | 53 | 321 | 2.0 | 4.0 | 0.00 | 0.00 | 0.00 | 47 | 1018.7 |
| 20260510061043 | 53 | 321 | 2.0 | 5.0 | 0.00 | 0.00 | 0.00 | 46 | 1018.5 |
| 20260510060552 | 54 | 321 | 2.0 | 5.0 | 0.00 | 0.00 | 0.00 | 46 | 1018.3 |
| 20260510060051 | 54 | 317 | 2.0 | 3.0 | 0.00 | 0.00 | 0.00 | 46 | 1018.0 |
| 20260510055546 | 54 | 317 | 1.0 | 3.0 | 0.00 | 0.00 | 0.00 | 45 | 1018.0 |
| 20260510055042 | 54 | 317 | 2.0 | 3.0 | 0.00 | 0.00 | 0.00 | 45 | 1017.8 |
| 20260510054537 | 54 | 317 | 2.0 | 4.0 | 0.00 | 0.00 | 0.00 | 45 | 1017.6 |
| 20260510054034 | 54 | 316 | 2.0 | 4.0 | 0.00 | 0.00 | 0.00 | 45 | 1017.4 |
| 20260510053550 | 55 | 316 | 2.0 | 6.0 | 0.00 | 0.00 | 0.00 | 45 | 1017.3 |
| 20260510053047 | 55 | 316 | 2.0 | 6.0 | 0.00 | 0.00 | 0.00 | 44 | 1017.3 |
| 20260510052540 | 55 | 314 | 2.0 | 4.0 | 0.00 | 0.00 | 0.00 | 45 | 1017.1 |
| 20260510052036 | 55 | 313 | 2.0 | 3.0 | 0.00 | 0.00 | 0.00 | 45 | 1017.0 |
| 20260510051533 | 55 | 312 | 1.0 | 3.0 | 0.00 | 0.00 | 0.00 | 44 | 1017.0 |
| 20260510051111 | 55 | 312 | 0.0 | 1.0 | 0.00 | 0.00 | 0.00 | 45 | 1017.1 |
| 20260510050558 | 55 | 312 | 0.0 | 1.0 | 0.00 | 0.00 | 0.00 | 44 | 1017.0 |
| 20260510050056 | 56 | 312 | 0.0 | 2.0 | 0.00 | 0.00 | 0.00 | 43 | 1016.9 |
| 20260510045601 | 56 | 312 | 1.0 | 2.0 | 0.00 | 0.00 | 0.00 | 43 | 1016.9 |
| 20260510045042 | 56 | 312 | 1.0 | 3.0 | 0.00 | 0.00 | 0.00 | 43 | 1016.7 |
| 20260510044555 | 57 | 312 | 2.0 | 4.0 | 0.00 | 0.00 | 0.00 | 42 | 1016.8 |
| 20260510044048 | 57 | 332 | 2.0 | 4.0 | 0.00 | 0.00 | 0.00 | 42 | 1016.7 |
| 20260510043545 | 57 | 340 | 2.0 | 5.0 | 0.00 | 0.00 | 0.00 | 43 | 1016.6 |
| 20260510043106 | 57 | 340 | 2.0 | 5.0 | 0.00 | 0.00 | 0.00 | 42 | 1016.5 |
| 20260510042542 | 57 | 310 | 1.0 | 6.0 | 0.00 | 0.00 | 0.00 | 42 | 1016.3 |
| 20260510042100 | 58 | 326 | 2.0 | 5.0 | 0.00 | 0.00 | 0.00 | 42 | 1016.2 |
| 20260510041535 | 58 | 322 | 2.0 | 5.0 | 0.00 | 0.00 | 0.00 | 42 | 1016.2 |
| 20260510041033 | 58 | 329 | 1.0 | 4.0 | 0.00 | 0.00 | 0.00 | 41 | 1016.1 |
| 20260510040603 | 59 | 329 | 2.0 | 4.0 | 0.00 | 0.00 | 0.00 | 41 | 1016.1 |
| 20260510040042 | 59 | 341 | 2.0 | 7.0 | 0.00 | 0.00 | 0.00 | 41 | 1015.9 |
| 20260510035540 | 59 | 319 | 3.0 | 6.0 | 0.00 | 0.00 | 0.00 | 41 | 1015.8 |
| 20260510035059 | 59 | 334 | 3.0 | 6.0 | 0.00 | 0.00 | 0.00 | 41 | 1015.7 |
| 20260510034536 | 60 | 325 | 3.0 | 6.0 | 0.00 | 0.00 | 0.00 | 41 | 1015.6 |
| 20260510034034 | 60 | 1 | 4.0 | 6.0 | 0.00 | 0.00 | 0.00 | 40 | 1015.5 |
| 20260510033536 | 60 | 345 | 2.0 | 5.0 | 0.00 | 0.00 | 0.00 | 41 | 1015.4 |
| 20260510033033 | 60 | 333 | 2.0 | 4.0 | 0.00 | 0.00 | 0.00 | 41 | 1015.4 |
| 20260510032550 | 60 | 333 | 2.0 | 6.0 | 0.00 | 0.00 | 0.00 | 41 | 1015.4 |
| 20260510032048 | 60 | 333 | 2.0 | 6.0 | 0.00 | 0.00 | 0.00 | 41 | 1015.2 |
| 20260510031544 | 60 | 8 | 2.0 | 6.0 | 0.00 | 0.00 | 0.00 | 42 | 1015.1 |
| 20260510031043 | 61 | 319 | 2.0 | 4.0 | 0.00 | 0.00 | 0.00 | 42 | 1015.0 |
| 20260510030550 | 61 | 319 | 2.0 | 6.0 | 0.00 | 0.00 | 0.00 | 42 | 1014.9 |
| 20260510030049 | 61 | 339 | 2.0 | 6.0 | 0.00 | 0.00 | 0.00 | 42 | 1014.9 |
| 20260510025544 | 61 | 310 | 2.0 | 4.0 | 0.00 | 0.00 | 0.00 | 42 | 1014.8 |
| 20260510025040 | 61 | 309 | 2.0 | 3.0 | 0.00 | 0.00 | 0.00 | 42 | 1014.6 |
| 20260510024534 | 62 | 309 | 2.0 | 3.0 | 0.00 | 0.00 | 0.00 | 42 | 1014.5 |
| 20260510024050 | 62 | 309 | 1.0 | 3.0 | 0.00 | 0.00 | 0.00 | 42 | 1014.4 |
| 20260510023544 | 62 | 327 | 1.0 | 3.0 | 0.00 | 0.00 | 0.00 | 42 | 1014.2 |
| 20260510023100 | 63 | 327 | 2.0 | 3.0 | 0.00 | 0.00 | 0.00 | 41 | 1014.2 |
| 20260510022533 | 63 | 327 | 2.0 | 5.0 | 0.00 | 0.00 | 0.00 | 41 | 1014.0 |
| 20260510022049 | 63 | 326 | 2.0 | 5.0 | 0.00 | 0.00 | 0.00 | 41 | 1013.9 |
| 20260510021555 | 64 | 326 | 3.0 | 5.0 | 0.00 | 0.00 | 0.00 | 41 | 1013.8 |
| 20260510021050 | 64 | 323 | 2.0 | 4.0 | 0.00 | 0.00 | 0.00 | 41 | 1013.8 |
| 20260510020558 | 64 | 330 | 2.0 | 5.0 | 0.00 | 0.00 | 0.00 | 40 | 1013.6 |
| 20260510020035 | 65 | 330 | 2.0 | 5.0 | 0.00 | 0.00 | 0.00 | 40 | 1013.4 |
| 20260510015552 | 65 | 11 | 2.0 | 6.0 | 0.00 | 0.00 | 0.00 | 40 | 1013.4 |
| 20260510015046 | 66 | 344 | 2.0 | 6.0 | 0.00 | 0.00 | 0.00 | 40 | 1013.2 |
| 20260510014547 | 66 | 341 | 2.0 | 7.0 | 0.00 | 0.00 | 0.00 | 40 | 1013.1 |
| 20260510014043 | 66 | 316 | 3.0 | 7.0 | 0.00 | 0.00 | 0.00 | 39 | 1013.0 |
| 20260510013538 | 66 | 318 | 2.0 | 6.0 | 0.00 | 0.00 | 0.00 | 40 | 1012.9 |
| 20260510013035 | 67 | 348 | 3.0 | 6.0 | 0.00 | 0.00 | 0.00 | 40 | 1012.7 |
| 20260510012531 | 67 | 323 | 2.0 | 5.0 | 0.00 | 0.00 | 0.00 | 41 | 1012.7 |
| 20260510012049 | 67 | 323 | 2.0 | 8.0 | 0.00 | 0.00 | 0.00 | 40 | 1012.6 |
| 20260510011544 | 67 | 336 | 3.0 | 8.0 | 0.00 | 0.00 | 0.00 | 40 | 1012.5 |
| 20260510011039 | 67 | 307 | 3.0 | 5.0 | 0.00 | 0.00 | 0.00 | 40 | 1012.5 |
| 20260510010606 | 68 | 327 | 3.0 | 5.0 | 0.00 | 0.00 | 0.00 | 41 | 1012.4 |
| 20260510010044 | 68 | 341 | 2.0 | 8.0 | 0.00 | 0.00 | 0.00 | 40 | 1012.3 |
| 20260510005538 | 68 | 341 | 3.0 | 9.0 | 0.00 | 0.00 | 0.00 | 39 | 1012.2 |
| 20260510005033 | 68 | 335 | 3.0 | 9.0 | 0.00 | 0.00 | 0.00 | 40 | 1012.1 |
| 20260510004610 | 68 | 335 | 2.0 | 7.0 | 0.00 | 0.00 | 0.00 | 40 | 1012.1 |
| 20260510004045 | 68 | 330 | 3.0 | 11.0 | 0.00 | 0.00 | 0.00 | 40 | 1011.9 |
| 20260510003540 | 68 | 346 | 5.0 | 13.0 | 0.00 | 0.00 | 0.00 | 40 | 1011.9 |
| 20260510003037 | 68 | 339 | 3.0 | 13.0 | 0.00 | 0.00 | 0.00 | 41 | 1011.8 |
| 20260510002533 | 68 | 338 | 3.0 | 8.0 | 0.00 | 0.00 | 0.00 | 42 | 1011.8 |
| 20260510002050 | 68 | 348 | 3.0 | 8.0 | 0.00 | 0.00 | 0.00 | 42 | 1011.8 |
| 20260510001546 | 68 | 312 | 3.0 | 8.0 | 0.00 | 0.00 | 0.00 | 42 | 1011.9 |
| 20260510001103 | 69 | 331 | 3.0 | 8.0 | 0.00 | 0.00 | 0.00 | 43 | 1011.8 |
| 20260510000612 | 69 | 359 | 3.0 | 7.0 | 0.00 | 0.00 | 0.00 | 44 | 1011.8 |
| 20260510000032 | 69 | 321 | 3.0 | 11.0 | 0.00 | 0.00 | 0.00 | 43 | 1011.8 |
| 20260509235548 | 69 | 359 | 4.0 | 11.0 | 0.00 | 0.00 | 0.00 | 43 | 1011.8 |
| 20260509235043 | 69 | 359 | 3.0 | 8.0 | 0.00 | 0.00 | 0.00 | 44 | 1011.8 |
| 20260509234538 | 69 | 329 | 3.0 | 7.0 | 0.00 | 0.00 | 0.00 | 44 | 1011.8 |
| 20260509234036 | 69 | 344 | 4.0 | 7.0 | 0.00 | 0.00 | 0.00 | 44 | 1011.8 |
| 20260509233533 | 69 | 326 | 3.0 | 8.0 | 0.00 | 0.00 | 0.00 | 44 | 1011.8 |
| 20260509233031 | 69 | 300 | 5.0 | 10.0 | 0.00 | 0.00 | 0.00 | 44 | 1011.8 |
| 20260509232549 | 69 | 349 | 4.0 | 10.0 | 0.00 | 0.00 | 0.00 | 44 | 1011.8 |
| 20260509232048 | 69 | 335 | 4.0 | 8.0 | 0.00 | 0.00 | 0.00 | 44 | 1011.7 |
| 20260509231607 | 69 | 314 | 3.0 | 11.0 | 0.00 | 0.00 | 0.00 | 44 | 1011.8 |
| 20260509231045 | 69 | 310 | 5.0 | 11.0 | 0.00 | 0.00 | 0.00 | 44 | 1011.7 |
| 20260509230551 | 70 | 347 | 4.0 | 8.0 | 0.00 | 0.00 | 0.00 | 44 | 1011.7 |
| 20260509230051 | 70 | 1 | 4.0 | 8.0 | 0.00 | 0.00 | 0.00 | 44 | 1011.7 |
| 20260509225547 | 70 | 326 | 6.0 | 8.0 | 0.00 | 0.00 | 0.00 | 44 | 1011.7 |
| 20260509225045 | 70 | 360 | 4.0 | 9.0 | 0.00 | 0.00 | 0.00 | 45 | 1011.7 |
| 20260509224542 | 70 | 319 | 5.0 | 14.0 | 0.00 | 0.00 | 0.00 | 44 | 1011.6 |
| 20260509224040 | 70 | 360 | 8.0 | 14.0 | 0.00 | 0.00 | 0.00 | 45 | 1011.5 |
| 20260509223537 | 70 | 356 | 7.0 | 10.0 | 0.00 | 0.00 | 0.00 | 44 | 1011.3 |
| 20260509223040 | 70 | 353 | 4.0 | 10.0 | 0.00 | 0.00 | 0.00 | 45 | 1011.2 |
| 20260509222536 | 71 | 333 | 5.0 | 13.0 | 0.00 | 0.00 | 0.00 | 44 | 1011.1 |
| 20260509222036 | 71 | 349 | 3.0 | 14.0 | 0.00 | 0.00 | 0.00 | 45 | 1011.1 |
| 20260509221532 | 71 | 344 | 9.0 | 14.0 | 0.00 | 0.00 | 0.00 | 43 | 1011.0 |
| 20260509221050 | 71 | 355 | 5.0 | 11.0 | 0.00 | 0.00 | 0.00 | 44 | 1011.0 |
| 20260509220621 | 70 | 309 | 3.0 | 11.0 | 0.00 | 0.00 | 0.00 | 44 | 1011.0 |
| 20260509220039 | 70 | 338 | 5.0 | 14.0 | 0.00 | 0.00 | 0.00 | 44 | 1010.9 |
| 20260509215535 | 70 | 311 | 5.0 | 9.0 | 0.00 | 0.00 | 0.00 | 43 | 1011.0 |
| 20260509215053 | 70 | 342 | 5.0 | 8.0 | 0.00 | 0.00 | 0.00 | 43 | 1011.0 |